Probability
0 0 0 0 1 2 3 3 3 3 3 2 1 0 0 0 0 0 0 0 0 1 1 1 0 0 0 0 0 0 0 0 0 0 0 0 0 0 0 0 0 0 0
0 0 0 1 2 3 3 3 3 3 3 1 0 0 0 0 0 0 0 0 0 1 2 1 0 0 0 0 0 0 0 0 0 0 0 0 0 0 0 0 0 0 0
0 1 1 1 2 3 3 3 3 3 3 1 1 1 0 0 0 0 0 0 0 1 1 1 0 0 0 0 0 0 0 0 0 0 0 0 0 0 0 0 0 0 0
1 2 2 2 3 3 3 3 3 3 3 2 2 1 0 0 0 0 0 0 0 0 0 0 1 1 1 0 0 0 0 0 0 0 0 0 0 0 0 0 0 0 0
2 3 3 3 3 3 3 3 3 3 3 2 1 1 0 1 1 1 0 0 0 0 0 1 3 3 2 1 0 0 0 0 0 0 0 0 0 0 0 0 0 0 0
3 3 3 3 3 3 3 3 3 3 2 1 0 0 1 2 2 2 1 0 0 0 1 1 2 3 3 1 0 0 0 0 0 0 0 0 0 0 0 0 0 0 0
4 3 3 3 3 3 3 3 1 1 1 1 1 1 2 2 2 2 1 1 1 1 2 2 3 3 3 2 1 1 1 1 1 0 0 0 0 0 0 0 0 0 0
5 4 3 2 3 4 3 3 1 0 0 1 3 3 1 1 1 1 1 2 2 3 4 4 4 4 4 4 3 3 2 2 2 1 0 0 0 0 0 0 0 0 0
7 6 4 3 3 4 3 2 1 1 1 3 5 5 3 1 0 0 1 2 3 3 4 4 3 4 5 6 5 4 2 2 1 1 0 0 0 0 0 0 0 0 0
9 7 5 3 4 3 2 1 1 1 3 5 6 7 6 5 4 3 2 1 2 3 3 2 2 3 5 7 7 4 1 0 0 0 0 0 0 0 0 0 0 1 1
9 7 4 3 3 2 2 3 3 4 4 5 6 6 6 7 8 7 4 2 2 3 4 3 2 2 3 5 6 4 1 0 0 0 0 0 0 0 0 0 1 3 3
9 7 4 3 2 2 3 6 7 7 6 6 6 6 6 8 8 8 5 2 1 2 4 3 2 2 2 3 3 2 0 0 0 0 0 0 0 0 0 1 3 5 6
10 8 4 2 1 2 4 7 9 8 7 8 8 9 8 8 7 7 5 3 1 1 3 3 1 1 2 3 3 2 0 0 0 0 0 0 0 0 0 1 4 5 5
9 8 6 3 2 2 4 7 8 7 7 9 10 10 9 8 7 8 7 6 2 1 2 2 2 2 2 4 4 3 3 1 0 0 0 0 0 0 0 0 1 2 2
10 11 10 8 7 5 5 6 7 6 6 8 9 10 8 7 8 8 9 8 4 2 2 3 5 6 6 6 5 7 7 4 1 0 0 0 0 0 0 0 0 0 0
14 15 15 14 12 9 7 6 7 6 6 7 9 9 8 8 9 10 11 11 8 5 3 4 8 11 12 10 9 11 11 8 4 1 0 0 0 0 0 0 0 0 0
16 16 18 17 14 11 8 7 6 6 6 7 8 8 8 9 11 14 16 15 12 9 8 9 11 13 15 14 13 12 12 11 7 2 0 0 0 0 0 0 0 0 0
18 17 17 15 11 9 8 8 8 7 7 8 9 10 10 11 13 15 16 15 13 13 13 13 13 12 14 14 14 13 11 10 8 3 0 0 0 0 0 0 0 0 0
17 15 12 9 8 8 9 10 12 12 12 13 14 14 14 13 14 15 15 14 13 13 16 16 14 14 13 14 14 13 13 13 9 3 0 0 0 0 0 0 0 0 0
13 11 8 6 7 9 9 11 13 15 15 16 17 17 17 15 13 12 12 13 13 14 16 16 15 15 15 15 15 15 16 16 13 8 4 2 2 1 0 0 0 0 0
10 8 5 4 6 8 8 8 10 12 14 15 16 17 17 14 10 8 8 9 12 14 16 16 16 16 16 16 15 15 16 16 16 13 10 7 4 3 2 1 0 0 0
11 8 6 5 5 6 6 5 5 9 11 14 15 16 15 13 9 6 4 4 7 11 13 14 15 14 15 15 15 14 13 13 13 13 12 9 6 5 5 3 1 0 0
11 10 9 8 8 7 4 2 2 5 9 13 15 16 15 12 10 8 5 4 4 5 7 10 11 11 12 14 14 12 10 9 9 10 11 10 7 5 5 3 1 0 0
13 12 12 12 11 8 4 1 1 4 9 12 13 14 14 12 9 8 8 7 6 4 4 5 7 7 8 10 11 9 7 7 7 8 9 8 7 6 5 4 1 0 0
15 14 14 14 12 9 5 2 2 6 9 10 10 9 10 9 6 5 7 8 6 5 4 3 4 4 5 5 5 5 4 4 4 5 6 6 5 4 4 4 2 0 0
16 15 14 13 13 10 6 2 3 7 10 10 9 7 6 5 4 3 5 6 5 4 4 3 3 3 3 3 2 2 2 2 2 4 5 5 4 3 3 3 2 1 0
Wind_Speed
2 2 1 0 0 1 2 1 1 1 1 1 1 1 1 1 1 2 4 8 7 7 8 9 9 9 9 9 8 8 7 7 7 7 7 8 8 7 7 8 8 7 6
2 1 1 0 0 0 1 0 1 1 1 1 1 1 2 2 2 2 4 6 8 7 8 9 9 9 9 9 9 8 8 7 7 7 8 8 8 8 8 8 8 7 7
1 1 1 1 0 0 1 1 1 1 2 2 2 2 2 2 2 2 3 3 6 9 9 9 9 9 9 10 9 9 8 8 8 8 8 7 7 7 7 8 8 8 7
2 2 1 0 0 1 1 1 2 1 1 1 1 1 1 2 3 3 3 3 3 4 8 10 10 10 10 10 10 10 9 9 9 9 9 8 8 8 7 7 8 8 8
2 2 1 0 2 1 1 2 0 1 1 1 2 3 2 3 3 4 4 4 4 4 4 9 11 9 10 10 10 10 10 10 10 10 10 10 9 8 8 8 8 8 8
2 2 2 2 2 1 1 1 1 1 2 2 3 1 2 2 3 3 4 4 5 5 5 5 7 9 11 10 10 11 11 11 10 10 11 10 10 10 9 9 9 9 9
3 3 3 1 3 2 2 2 2 2 2 2 2 2 2 3 3 3 3 3 4 4 4 5 5 4 6 11 10 10 11 11 11 11 11 11 11 10 10 10 10 9 9
4 3 2 3 2 2 3 3 3 3 2 2 2 2 2 3 4 3 3 4 3 3 4 5 5 5 5 5 7 11 11 11 11 11 11 11 11 11 11 11 11 10 10
4 3 3 3 3 3 2 3 3 3 3 2 2 2 2 1 1 3 3 2 2 2 3 3 5 5 5 4 5 9 10 10 10 10 11 11 11 11 11 11 11 10 10
4 4 5 4 4 3 3 4 3 3 3 3 2 2 3 2 2 1 3 3 3 3 3 3 3 4 5 5 4 4 8 9 9 10 10 10 11 11 11 11 11 11 10
4 4 4 4 4 4 3 4 3 4 3 3 3 2 2 2 4 3 2 2 2 2 2 3 2 3 4 4 4 5 7 8 8 9 9 9 9 9 10 11 12 12 12
3 4 4 4 4 3 3 3 3 4 3 3 3 3 3 3 3 3 3 3 2 2 1 1 2 2 3 4 4 4 6 7 7 7 7 8 8 8 9 10 11 11 12
3 3 3 3 3 2 3 3 3 3 3 3 3 3 3 4 3 3 3 3 3 2 2 2 2 2 3 2 2 5 6 6 6 6 6 6 7 7 7 8 9 10 10
3 2 3 3 2 3 3 2 2 2 2 2 3 3 3 3 3 3 3 3 3 3 2 2 1 2 2 2 1 4 4 6 5 5 6 6 6 6 6 6 6 6 7
3 3 3 3 3 2 2 2 2 2 2 2 3 3 3 2 3 3 3 3 3 4 2 2 2 2 2 1 1 3 3 5 5 5 5 5 5 5 5 5 5 5 5
2 2 3 3 2 2 2 2 2 2 2 2 2 2 3 2 2 2 3 2 3 4 3 1 1 2 2 1 2 2 2 6 5 5 4 5 4 4 4 4 4 4 4
2 3 2 2 2 2 2 2 2 2 2 2 2 2 2 2 2 2 2 2 2 2 2 2 2 1 2 3 2 2 3 3 4 6 5 4 4 3 3 3 3 3 3
2 2 2 2 2 2 2 2 2 2 2 1 1 1 2 2 2 2 2 2 2 2 3 3 2 2 2 3 2 3 2 3 3 6 7 5 4 3 3 2 2 1 2
2 2 2 2 2 1 1 1 1 1 1 1 1 1 2 2 2 2 2 2 2 2 2 3 2 2 2 2 2 2 1 1 2 5 7 6 5 4 3 3 2 2 1
2 2 2 2 2 1 1 1 1 1 0 1 1 1 2 2 2 2 2 2 2 2 2 3 2 2 1 1 2 2 1 1 1 1 3 4 6 6 5 4 3 3 2
2 2 2 2 2 1 1 0 0 1 0 1 1 1 2 3 5 3 2 2 2 2 2 2 1 1 1 1 2 2 2 1 1 1 1 2 3 3 3 4 3 3 2
3 2 2 2 2 1 4 3 2 1 1 1 1 1 1 2 3 3 4 4 4 3 3 2 1 2 2 2 2 3 2 2 1 0 1 0 1 1 2 2 5 4 3
3 3 2 2 2 3 4 3 2 1 1 2 2 2 1 3 3 2 3 3 3 4 3 2 2 2 2 3 3 3 1 2 1 1 1 1 1 1 1 5 7 5 3
3 3 3 3 3 4 4 2 1 1 2 2 2 2 2 3 4 3 2 2 3 4 4 2 2 3 3 4 3 2 1 1 1 1 1 1 0 1 2 3 7 6 5
4 3 3 3 3 4 4 2 1 2 3 3 3 4 4 4 7 5 2 2 3 3 5 6 5 5 6 6 5 2 1 1 0 1 1 1 1 1 1 1 4 7 6
4 3 4 3 3 4 4 3 2 1 3 3 4 5 8 7 7 6 2 2 3 3 3 4 4 3 4 4 3 3 3 2 2 1 3 2 1 1 0 1 2 1 3
Wind_Direction
104 97 94 80 101 110 148 153 133 125 200 195 211 182 179 183 167 161 132 152 171 182 184 183 183 184 185 183 183 184 186 187 188 186 184 183 181 181 180 178 177 177 178
99 121 156 161 13 259 48 175 158 171 236 230 213 186 209 196 175 175 158 156 172 183 185 187 188 192 192 192 193 191 193 196 197 196 194 193 191 191 188 188 188 188 186
153 197 212 214 116 251 197 235 251 230 222 205 197 199 206 216 186 185 188 177 174 178 189 195 197 197 195 198 197 197 197 199 199 197 194 193 195 194 193 197 197 196 194
215 242 246 204 149 242 226 223 236 257 267 236 219 233 203 197 205 196 197 196 194 179 182 193 201 202 200 201 203 202 203 204 204 204 201 201 203 201 201 202 203 203 201
223 239 254 105 251 251 251 263 86 261 231 236 228 210 213 206 208 201 200 199 198 202 192 177 192 201 204 204 207 207 207 209 208 208 208 208 207 205 204 205 206 206 206
223 245 233 215 252 249 272 309 301 277 257 250 262 243 235 220 210 196 203 191 197 202 207 195 191 195 199 205 210 210 211 213 212 212 213 214 211 208 207 209 211 213 214
227 238 266 223 250 247 254 256 258 239 238 235 232 216 212 199 192 193 206 205 195 196 198 200 212 204 190 198 207 212 215 215 214 215 216 216 214 212 212 214 215 216 218
230 225 235 253 244 249 252 268 262 261 248 228 245 236 208 179 188 186 190 195 204 200 196 195 200 208 221 199 183 202 212 215 216 217 216 215 216 216 217 219 218 218 221
229 242 241 245 247 252 249 253 251 248 254 239 238 267 272 245 162 172 191 189 201 222 217 199 202 205 213 209 195 192 202 209 216 220 219 218 218 219 219 220 222 220 221
225 226 231 234 242 250 247 249 240 253 255 257 231 243 275 308 274 213 193 184 199 217 234 240 215 203 214 215 200 191 189 203 215 223 223 222 220 219 219 221 224 224 225
225 230 232 232 237 246 250 258 258 257 250 256 253 239 228 231 249 250 242 224 213 211 211 231 236 222 214 216 214 194 179 195 209 219 223 224 224 222 221 223 226 229 229
221 221 231 229 235 243 245 249 248 245 257 266 268 260 253 252 247 244 247 245 249 249 233 235 239 231 224 214 211 158 174 189 203 212 218 222 226 226 224 224 228 231 232
226 216 233 227 231 229 240 247 242 261 256 256 258 258 262 267 272 266 258 262 270 267 248 236 236 241 230 212 191 161 174 187 198 205 208 215 221 224 225 226 228 232 236
249 232 229 226 225 229 233 228 248 243 247 258 265 274 267 266 268 261 262 265 262 257 246 254 252 245 250 221 157 184 189 179 190 197 200 202 208 217 223 223 225 231 237
241 223 224 225 221 219 227 234 251 259 246 250 254 245 256 256 257 260 260 261 260 263 265 251 249 245 242 217 167 206 207 156 175 186 195 198 204 211 219 221 223 227 231
249 232 223 218 212 208 212 228 236 238 244 251 268 277 271 269 279 262 254 259 263 262 264 291 301 310 304 261 163 199 182 151 155 171 182 189 192 195 204 211 215 214 219
223 212 208 201 194 198 206 215 234 230 235 247 260 260 271 289 279 273 259 251 254 256 246 264 268 301 301 285 261 232 205 195 163 160 163 169 174 176 180 199 212 211 217
201 190 188 177 186 194 201 214 228 228 234 244 273 284 291 289 285 287 282 266 263 263 246 253 268 267 255 246 245 247 225 192 178 145 154 160 163 160 158 162 168 194 217
173 172 167 172 182 186 192 208 221 234 246 276 306 305 307 305 296 304 288 273 259 249 249 247 250 258 263 260 246 234 209 215 207 153 153 157 156 154 154 152 143 118 117
166 165 158 157 160 178 180 199 202 194 272 305 316 326 326 315 309 301 288 286 282 275 257 254 242 243 255 260 253 237 220 195 238 210 133 142 148 155 153 146 125 110 116
149 152 151 145 153 158 113 109 177 130 358 308 323 354 19 28 26 2 336 329 303 284 269 266 268 271 304 312 286 272 247 227 193 295 200 162 154 161 159 149 126 105 106
126 123 121 125 130 99 63 40 356 34 27 12 28 36 56 61 63 57 35 23 7 333 325 317 331 336 334 319 308 296 291 262 236 84 273 225 146 139 133 119 116 120 115
122 122 125 120 113 80 69 54 17 4 43 47 48 33 19 39 43 54 81 87 60 31 5 329 357 347 337 331 313 299 319 312 334 43 287 278 115 104 90 90 107 121 120
129 129 128 119 110 83 72 75 42 120 77 66 57 50 45 33 17 8 44 57 63 55 39 31 18 2 5 347 325 314 300 232 203 134 278 280 81 47 61 89 115 122 127
130 131 126 119 113 96 69 49 1 123 106 89 74 57 44 44 28 14 38 63 67 73 82 75 58 50 44 35 4 343 348 285 270 102 26 318 15 33 36 82 119 138 141
134 131 116 117 113 102 79 56 349 135 109 106 96 83 64 48 35 14 28 56 62 54 61 80 83 77 64 66 49 9 342 327 333 38 48 333 347 345 320 42 42 113 138